DW4604 Weather Reports


time (UTC)temp
F
wind
direction
speed
knots
gust
knots
rain 1hr
in
rain 24hr
in
rain mn
in
humidity
%
barometer
mb
20260505095459 81 0 0.0 0.0 0.00 0.00 0.00 33 1007.6
20260505094958 81 0 0.0 0.0 0.00 0.00 0.00 33 1007.6
20260505094458 80 0 0.0 0.0 0.00 0.00 0.00 32 1007.6
20260505093958 80 0 0.0 0.0 0.00 0.00 0.00 35 1007.8
20260505093459 80 0 0.0 0.0 0.00 0.00 0.00 34 1007.8
20260505092959 80 0 0.0 0.0 0.00 0.00 0.00 37 1007.8
20260505092459 80 0 0.0 0.0 0.00 0.00 0.00 36 1007.9
20260505091959 80 0 0.0 0.0 0.00 0.00 0.00 36 1008.0
20260505091458 78 0 0.0 0.0 0.00 0.00 0.00 39 1008.1
20260505090959 78 0 0.0 0.0 0.00 0.00 0.00 37 1008.2
20260505085958 78 0 0.0 0.0 0.00 0.00 0.00 38 1008.3
20260505085500 78 0 0.0 0.0 0.00 0.00 0.00 37 1008.3
20260505084959 78 0 0.0 0.0 0.00 0.00 0.00 37 1008.4
20260505084459 77 0 0.0 0.0 0.00 0.00 0.00 39 1008.5
20260505083958 77 0 0.0 0.0 0.00 0.00 0.00 38 1008.5
20260505083000 76 0 0.0 0.0 0.00 0.00 0.00 40 1008.7
20260505082500 76 0 0.0 0.0 0.00 0.00 0.00 39 1008.8
20260505082000 75 0 0.0 0.0 0.00 0.00 0.00 38 1008.7
20260505081500 76 0 0.0 0.0 0.00 0.00 0.00 38 1008.8
20260505080959 76 0 0.0 0.0 0.00 0.00 0.00 40 1008.9
20260505080459 76 0 0.0 0.0 0.00 0.00 0.00 39 1008.9
20260505075000 73 0 0.0 0.0 0.00 0.00 0.00 40 1009.0
20260505074459 73 0 0.0 0.0 0.00 0.00 0.00 42 1009.1
20260505073959 73 0 0.0 0.0 0.00 0.00 0.00 40 1009.1
20260505073459 72 0 0.0 0.0 0.00 0.00 0.00 45 1009.2
20260505072959 72 0 0.0 0.0 0.00 0.00 0.00 44 1009.3
20260505072500 73 0 0.0 0.0 0.00 0.00 0.00 40 1009.3
20260505071958 73 0 0.0 0.0 0.00 0.00 0.00 43 1009.4
20260505071458 72 0 0.0 0.0 0.00 0.00 0.00 43 1009.4
20260505071000 72 0 0.0 0.0 0.00 0.00 0.00 45 1009.4
20260505070459 71 0 0.0 0.0 0.00 0.00 0.00 43 1009.5
20260505065459 70 0 0.0 0.0 0.00 0.00 0.00 47 1009.6
20260505064959 69 0 0.0 0.0 0.00 0.00 0.00 45 1009.6
20260505064459 69 0 0.0 0.0 0.00 0.00 0.00 46 1009.5
20260505063959 68 0 0.0 0.0 0.00 0.00 0.00 49 1009.6
20260505063458 67 0 0.0 0.0 0.00 0.00 0.00 48 1009.6
20260505062500 66 0 0.0 0.0 0.00 0.00 0.00 49 1009.7
20260505061959 65 0 0.0 0.0 0.00 0.00 0.00 50 1009.7
20260505061459 65 0 0.0 0.0 0.00 0.00 0.00 53 1009.7
20260505060959 64 0 0.0 0.0 0.00 0.00 0.00 53 1009.7
20260505060500 64 0 0.0 0.0 0.00 0.00 0.00 51 1009.8
20260505055959 63 0 0.0 0.0 0.00 0.00 0.00 54 1009.7
20260505054959 62 0 0.0 0.0 0.00 0.00 0.00 57 1009.8
20260505053959 60 0 0.0 0.0 0.00 0.00 0.00 58 1009.8
20260505053000 59 0 0.0 0.0 0.00 0.00 0.00 61 1009.8
20260505052501 58 0 0.0 0.0 0.00 0.00 0.00 62 1009.9
20260505051459 57 0 0.0 0.0 0.00 0.00 0.00 64 1009.9
20260505051000 56 0 0.0 0.0 0.00 0.00 0.00 64 1009.9
20260505050459 56 0 0.0 0.0 0.00 0.00 0.00 64 1009.9
20260505040959 50 0 0.0 0.0 0.00 0.00 0.00 73 1010.0
20260505040001 48 0 0.0 0.0 0.00 0.00 0.00 77 1010.0
20260505035500 48 0 0.0 0.0 0.00 0.00 0.00 78 1010.0
20260505034959 47 0 0.0 0.0 0.00 0.00 0.00 78 1010.0
20260505034500 47 0 0.0 0.0 0.00 0.00 0.00 78 1010.1
20260505033959 47 0 0.0 0.0 0.00 0.00 0.00 78 1010.1
20260505033459 47 0 0.0 0.0 0.00 0.00 0.00 78 1010.1
20260505032959 47 0 0.0 0.0 0.00 0.00 0.00 78 1010.0
20260505032459 47 0 0.0 0.0 0.00 0.00 0.00 78 1010.0
20260505031501 47 0 0.0 0.0 0.00 0.00 0.00 78 1010.0
20260505031000 47 0 0.0 0.0 0.00 0.00 0.00 78 1010.0
20260505030501 47 0 0.0 0.0 0.00 0.00 0.00 78 1010.1
20260505030000 47 0 0.0 0.0 0.00 0.00 0.00 77 1010.1
20260505025459 47 0 0.0 0.0 0.00 0.00 0.00 77 1010.3
20260505025000 48 0 0.0 0.0 0.00 0.00 0.00 77 1010.3
20260505024000 47 0 0.0 0.0 0.00 0.00 0.00 77 1010.3
20260505023500 47 0 0.0 0.0 0.00 0.00 0.00 78 1010.5
20260505022459 47 0 0.0 0.0 0.00 0.00 0.00 77 1010.5
20260505022001 48 0 0.0 0.0 0.00 0.00 0.00 77 1010.5
20260505021500 48 0 0.0 0.0 0.00 0.00 0.00 77 1010.5
20260505021000 48 0 0.0 0.0 0.00 0.00 0.00 77 1010.5
20260505020500 49 0 0.0 0.0 0.00 0.00 0.00 76 1010.5
20260505020001 49 0 0.0 0.0 0.00 0.00 0.00 76 1010.5
20260505015459 49 0 0.0 0.0 0.00 0.00 0.00 76 1010.6
20260505014959 49 0 0.0 0.0 0.00 0.00 0.00 76 1010.6
20260505014459 48 0 0.0 0.0 0.00 0.00 0.00 76 1010.7
20260505014000 48 0 0.0 0.0 0.00 0.00 0.00 77 1010.7
20260505013459 48 0 0.0 0.0 0.00 0.00 0.00 77 1010.7
20260505013000 49 0 0.0 0.0 0.00 0.00 0.00 77 1010.7
20260505012500 49 0 0.0 0.0 0.00 0.00 0.00 77 1010.7
20260505012000 49 0 0.0 0.0 0.00 0.00 0.00 77 1010.7
20260505011500 49 0 0.0 0.0 0.00 0.00 0.00 77 1010.6
20260505011000 49 0 0.0 0.0 0.00 0.00 0.00 77 1010.6
20260505010001 49 0 0.0 0.0 0.00 0.00 0.00 77 1010.7
20260505005002 49 0 0.0 0.0 0.00 0.00 0.00 78 1010.8
20260505004501 49 0 0.0 0.0 0.00 0.00 0.00 78 1010.8
20260505004001 49 0 0.0 0.0 0.00 0.00 0.00 78 1010.8
20260505003500 49 0 0.0 0.0 0.00 0.00 0.00 78 1010.9
20260505003000 49 0 0.0 0.0 0.00 0.00 0.00 77 1010.9
20260505002000 49 0 0.0 0.0 0.00 0.00 0.00 77 1011.1
20260505001500 49 0 0.0 0.0 0.00 0.00 0.00 78 1011.1
20260505001000 49 0 0.0 0.0 0.00 0.00 0.00 77 1011.1
20260505000500 49 0 0.0 0.0 0.00 0.00 0.00 77 1011.1
20260505000002 49 0 0.0 0.0 0.00 0.00 0.00 77 1011.1
20260504235500 49 0 0.0 0.0 0.00 0.00 0.00 77 1011.2
20260504235001 49 0 0.0 0.0 0.00 0.00 0.00 78 1011.2
20260504234501 49 0 0.0 0.0 0.00 0.00 0.00 78 1011.3
20260504233500 50 0 0.0 0.0 0.00 0.00 0.00 78 1011.3
20260504233000 50 0 0.0 0.0 0.00 0.00 0.00 77 1011.4
20260504232001 51 0 0.0 0.0 0.00 0.00 0.00 77 1011.4
20260504231500 51 0 0.0 0.0 0.00 0.00 0.00 77 1011.4
20260504231000 51 0 0.0 0.0 0.00 0.00 0.00 77 1011.5
20260504230501 51 0 0.0 0.0 0.00 0.00 0.00 76 1011.5
20260504225500 51 0 0.0 0.0 0.00 0.00 0.00 77 1011.6
20260504224500 52 0 0.0 0.0 0.00 0.00 0.00 77 1011.8
20260504224000 52 0 0.0 0.0 0.00 0.00 0.00 77 1011.8
20260504223500 52 0 0.0 0.0 0.00 0.00 0.00 77 1011.8
20260504223001 52 0 0.0 0.0 0.00 0.00 0.00 77 1011.8
20260504222501 52 0 0.0 0.0 0.00 0.00 0.00 77 1011.8
20260504222001 53 0 0.0 0.0 0.00 0.00 0.00 77 1011.8
20260504221501 53 0 0.0 0.0 0.00 0.00 0.00 77 1011.8
20260504220501 53 0 0.0 0.0 0.00 0.00 0.00 77 1011.8
20260504220002 53 0 0.0 0.0 0.00 0.00 0.00 77 1011.8
20260504215500 53 0 0.0 0.0 0.00 0.00 0.00 77 1011.8
20260504215000 53 0 0.0 0.0 0.00 0.00 0.00 76 1011.9
20260504214500 53 0 0.0 0.0 0.00 0.00 0.00 77 1011.8
20260504214001 54 0 0.0 0.0 0.00 0.00 0.00 77 1011.8
20260504213500 54 0 0.0 0.0 0.00 0.00 0.00 76 1011.8
20260504213002 54 0 0.0 0.0 0.00 0.00 0.00 76 1011.8
20260504212501 54 0 0.0 0.0 0.00 0.00 0.00 76 1011.9
20260504212000 54 0 0.0 0.0 0.00 0.00 0.00 76 1011.8
20260504211500 55 0 0.0 0.0 0.00 0.00 0.00 75 1011.8
20260504211000 55 0 0.0 0.0 0.00 0.00 0.00 75 1011.8
20260504210003 55 0 0.0 0.0 0.00 0.00 0.00 74 1011.8
20260504205501 56 0 0.0 0.0 0.00 0.00 0.00 74 1011.8
20260504205002 56 0 0.0 0.0 0.00 0.00 0.00 74 1011.8
20260504204501 56 0 0.0 0.0 0.00 0.00 0.00 75 1011.8
20260504204001 55 0 0.0 0.0 0.00 0.00 0.00 75 1011.8
20260504203501 56 0 0.0 0.0 0.00 0.00 0.00 75 1011.8
20260504203001 56 0 0.0 0.0 0.00 0.00 0.00 75 1011.8
20260504202503 56 0 0.0 0.0 0.00 0.00 0.00 74 1011.8
20260504202001 57 0 0.0 0.0 0.00 0.00 0.00 74 1011.8
20260504201501 57 0 0.0 0.0 0.00 0.00 0.00 73 1011.8
20260504201001 57 0 0.0 0.0 0.00 0.00 0.00 72 1011.7
20260504200001 58 0 0.0 0.0 0.00 0.00 0.00 71 1011.7
20260504195501 58 0 0.0 0.0 0.00 0.00 0.00 70 1011.6
20260504195001 59 0 0.0 0.0 0.00 0.00 0.00 70 1011.7
20260504194501 59 0 0.0 0.0 0.00 0.00 0.00 69 1011.6
20260504194003 59 0 0.0 0.0 0.00 0.00 0.00 69 1011.6
20260504193501 59 0 0.0 0.0 0.00 0.00 0.00 68 1011.5
20260504193001 60 0 0.0 0.0 0.00 0.00 0.00 67 1011.6
20260504192002 60 0 0.0 0.0 0.00 0.00 0.00 66 1011.6
20260504191502 61 0 0.0 0.0 0.00 0.00 0.00 65 1011.6
20260504190502 61 0 0.0 0.0 0.00 0.00 0.00 64 1011.5
20260504190002 62 0 0.0 0.0 0.00 0.00 0.00 63 1011.5
20260504185501 62 0 0.0 0.0 0.00 0.00 0.00 63 1011.5
20260504185001 62 0 0.0 0.0 0.00 0.00 0.00 62 1011.4
20260504183502 64 0 0.0 0.0 0.00 0.00 0.00 58 1011.3
20260504182503 65 0 0.0 0.0 0.00 0.00 0.00 56 1011.2
20260504182002 66 0 0.0 0.0 0.00 0.00 0.00 55 1011.2
20260504181001 68 0 0.0 0.0 0.00 0.00 0.00 51 1011.2
20260504180502 69 0 0.0 0.0 0.00 0.00 0.00 49 1011.1
20260504180002 70 0 0.0 0.0 0.00 0.00 0.00 48 1011.1
20260504175501 70 0 0.0 0.0 0.00 0.00 0.00 48 1011.1
20260504175001 71 0 0.0 0.0 0.00 0.00 0.00 47 1011.1
20260504174001 71 0 0.0 0.0 0.00 0.00 0.00 46 1011.1
20260504172002 72 0 0.0 0.0 0.00 0.00 0.00 47 1011.0
20260504171501 73 0 0.0 0.0 0.00 0.00 0.00 48 1010.9
20260504171001 73 0 0.0 0.0 0.00 0.00 0.00 45 1010.9
20260504170502 74 0 0.0 0.0 0.00 0.00 0.00 45 1010.9
20260504151002 77 0 0.0 0.0 0.00 0.00 0.00 42 1011.2
20260504150502 77 0 0.0 0.0 0.00 0.00 0.00 40 1011.2
20260504140502 78 0 0.0 0.0 0.00 0.00 0.00 43 1011.8
20260504130502 78 0 0.0 0.0 0.00 0.00 0.00 38 1012.1
20260504110504 76 0 0.0 0.0 0.00 0.00 0.00 41 1013.3